ATLAS 5 CENTAUR DEB, 44039

Orbit data source: Space-Track

ATLAS 5 CENTAUR DEB, 44039 is space debris in HEO originally from a launch on Wed, 17 Sep 2014 UTC launched from the Air Force Eastern Test Range (AFETR). Debris objects in space refer to the collection of defunct objects orbiting the Earth. Examples of debris include non-operational satellites, rocket bodies, and fragments generated from explosions, collisions, or faulty payload assembly.

Loading next visibility...
Identifier
44039, 2014-055BZ
Orbit
HEO
Country
Flag of USUS
Related business
Flag of USUnited Launch Alliance/Lockheed Martin (US)
Manufacturer
Unknown
Mission
Spacecraft
Bus & Motor
Unknown
Mass
Unknown
Launch date (UTC)
2014-09-17 (12 years ago)
Launch vehicle
Unknown
Launch site
Air Force Eastern Test Range (AFETR)
Object type
Payload
Rocket body
Debris
Shape & HBR
Unknown shape, 1.1 m
Radar Cross Section
Small (<0.1 m²)

Expand to show TLE details & history
Last TLE update: 1 week ago

TLE from 1 week ago
0 ATLAS 5 CENTAUR DEB
1 44039U 14055BZ  26127.16638696 -.00000038  00000-0  00000-0 0  9990
2 44039  20.5350 130.9143 4821521 189.6725 156.0030  1.89431606 51705
Epoch: 2026-05-07T03:59Z
TLE epoch observation values (Epoch: 2026-05-07T03:59:35.833Z)
Latitude
-0.00005°
Longitude
-154.01303°
Altitude
33,959.332 km
Speed
2.306 km/s
True Right ascension
08h 43m 36s
True Declination
0° 00' 00"
Sunlit
Object was in daylight at epoch
Visualization orbit readout
Latitude
Unknown
Longitude
Unknown
Altitude
Unknown
Speed
Unknown
Apparent Right ascension
Unknown
Apparent Declination
Unknown
Sunlit
N/A
Visualization observer readout
Local Sidereal Time
07:44:59
Azimuth
Unknown
Elevation
Unknown
Doppler factor
Unknown
Orbital elements
Apogee altitude
34,518.763 km
Perigee altitude
7,910.797 km
Semi-major axis
27,592.917 km
Eccentricity
0.48215
Inclination
20.535°
RAAN
130.9143°
Arg. of periapsis
189.6725°
True anomaly
170.3459°
Mean anomaly
156.003°
Eccentric anomaly
163.73862°
Mean motion
0.47353 °/min
Orbital period
760.25 mins
BSTAR
0
Loading maneuver chart data...
Computing Atmospheric mass density...

Documentation

Showing up to 5 results
|